{"data":{"norad_id":62612,"epoch":"2026-05-25T04:07:55.951968Z","epoch_age_seconds":59919,"freshness":"FRESH","line1":"1 62612U 25009D   26145.17217537  .00008704  00000+0  31972-3 0  9997","line2":"2 62612  97.4019 227.3572 0001905  81.4631 278.6824 15.28161936 75400","mean_motion":15.28161936,"eccentricity":0.0001905,"inclination_deg":97.4019,"raan_deg":227.3572,"arg_perigee_deg":81.4631,"mean_anomaly_deg":278.6824,"bstar":0.00031972,"rev_number":7540,"period_min":94.230851199529,"perigee_km":480.00039919603,"apogee_km":482.613847407,"semimajor_km":6859.4441233015,"source":"CELESTRAK","updated_at":"2026-05-25T13:38:03.126856Z"}}